Location: ???????
(55.4362°N, 38.1183°E)
Time: 11:56:49
(UTC+00:00)

deb Delta 139 - Pass Details

Date: 29 January 2022
Orbit: 790 x 1093 km, 98.7° (Epoch: 23 May)

Event Time Altitude Azimuth Distance (km) Brightness Sun altitude
Rises 03:43:31 0° 17° (NNE) 3,664 ? -14.3°
Reaches altitude 10° 03:45:56 10° 19° (NNE) 2,755 ? -14.0°
Maximum altitude 03:52:11 71° 104° (ESE) 1,093 ? -13.1°
Drops below altitude 10° 03:58:47 10° 189° (S) 2,905 ? -12.2°
Sets 04:01:23 0° 191° (S) 3,876 ? -11.8°
